Regional Weather Roundup
Issued by NWS

Home | Current Version | Previous Version | Text Only | Print | Product List | Glossary Off
Versions: 1 2 3 4 5 6 7 8 9 10 11 12 13 14 15 16 17 18 19 20 21 22 23 24 25 26 27 28 29 30 31 32 33 34 35 36 37 38 39 40 41 42 43 44 45 46 47 48 49 50

000
ASUS45 KBOU 251407
RWRCO

WEATHER ROUNDUP FOR COLORADO
NATIONAL WEATHER SERVICE DENVER/BOULDER CO
800 AM MDT FRI JUL 25 2014

NOTE: "FAIR" INDICATES FEW OR NO CLOUDS BELOW 12000 FEET WITH NO
SIGNIFICANT WEATHER AND/OR OBSTRUCTIONS TO VISIBILITY.

COZ001>005-013-030-031-251500-
...NORTHWEST COLORADO...

CITY           SKY/WX    TMP DP  RH WIND       PRES   REMARKS
CRAIG          MOSUNNY   61  54  77 E5        30.21F
HAYDEN         MOSUNNY   63  48  59 E15       30.25F
MEEKER         MOSUNNY   66  52  60 CALM      30.24S
MOUNT WERNER   NOT AVBL
STEAMBOAT SPGS MOSUNNY   58  53  81 W5        30.30R
WALDEN         PTSUNNY   57  43  58 E5        30.36S
$$

COZ006>008-011-251500-
...WEST CENTRAL VALLEYS...

CITY           SKY/WX    TMP DP  RH WIND       PRES   REMARKS
GRAND JUNCTION MOSUNNY   73  53  49 SE17      30.13S
MONTROSE       MOSUNNY   68  50  52 S5        30.26R
EAGLE          MOSUNNY   57  54  88 CALM      30.35F
RIFLE          MOSUNNY   68  51  54 VRB5      30.21S
DELTA          MOSUNNY   70  53  54 E5        30.22R
NUCLA          MOSUNNY   64  50  59 CALM      30.29R
$$

COZ017>023-064>068-251500-
...SOUTHWEST COLORADO...

CITY           SKY/WX    TMP DP  RH WIND       PRES   REMARKS
DURANGO        PTSUNNY   68  50  52 N5        30.31R
CORTEZ         SUNNY     70  53  54 NE3       30.24R
PAGOSA SPRINGS MOSUNNY   67  48  51 E3        30.40R
TELLURIDE      CLOUDY    57  48  72 CALM      30.49S
WOLF CREEK PAS NOT AVBL
$$

COZ009-010-012-014-032>034-037-058>063-251500-
...CENTRAL COLORADO...

CITY           SKY/WX    TMP DP  RH WIND       PRES   REMARKS
ASPEN          MOSUNNY   56  47  71 CALM      30.39R
BUENA VISTA    MOSUNNY   64  45  50 W5        30.37F
COPPER MTN     MOSUNNY   55  41  58 W5        30.69R
BERTHOUD PASS  FAIR      45  32  61 NW20      30.71S
COTTONWOOD PAS MOSUNNY   64  43  45 CALM      30.51S
GUNNISON       MOSUNNY   54  45  71 CALM      30.44S
KREMMLING      SUNNY     55  45  67 CALM      30.38S
LEADVILLE      MOSUNNY   56  43  61 N6        30.51S
MONARCH PASS   SUNNY     48  41  76 W21       30.78R
SALIDA         MOSUNNY  N/A N/A N/A NW12      30.41S
SUNLIGHT       CLOUDY    55  46  71 CALM      30.60R
WILKERSON PASS SUNNY     57  37  47 NW9G17    30.64S
$$

COZ069>075-251500-
...SAN LUIS VALLEY/SANGRE DE CRISTO MOUNTAINS...

CITY           SKY/WX    TMP DP  RH WIND       PRES   REMARKS
ALAMOSA        MOSUNNY   65  49  56 CALM      30.36R
LA VETA PASS   MOSUNNY   55  43  62 SW12G20   30.52R
SAGUACHE       SUNNY     61  50  67 NW13      30.40S
$$

COZ035-036-038>040-251500-
...NORTHERN COLORADO FRONT RANGE...

CITY           SKY/WX    TMP DP  RH WIND       PRES   REMARKS
DENVER INTL AP PTSUNNY   76  49  38 SW8       30.10R
DMNS CITY PARK   N/A     74  52  45 S6        30.10S
AURORA         PTSUNNY   73  52  48 S6        30.13S
FRONT RANGE AP PTSUNNY   79  50  36 SW6       30.12R
ERIE MUNI ARPT MOSUNNY   74  51  44 CALM      30.07S
BOULDER MUN AP MOSUNNY   77  50  38 CALM      30.07F
CENTENNIAL     MOSUNNY   76  47  35 SW6       30.14R
BROOMFIELD     NOT AVBL
FORT COLLINS   MOSUNNY   72  57  60 SE9       30.08R
LONGMONT       MOSUNNY   74  59  58 CALM      30.08S
$$

COZ041-046-047-076>085-087-088-251500-
...PIKES PEAK/PALMER DIVIDE AND SOUTHERN FOOTHILLS...

CITY           SKY/WX    TMP DP  RH WIND       PRES   REMARKS
COLO. SPRINGS  PTSUNNY   79  47  32 N9        30.17R
A. F. ACADEMY  SUNNY     72  50  46 N5        30.21R
ELLICOTT       MOSUNNY   77  48  35 N10       30.15R
FALCON         MOSUNNY   75  45  33 NW7       30.23R
FORT CARSON    MOSUNNY   73  50  43 N10       30.14R
LIMON          MOSUNNY   77  54  44 NW7       30.09S
MONUMENT HILL  SUNNY     72  48  43 W6        30.23S
TRINIDAD       MOSUNNY   73  51  46 W8        30.15S
$$

COZ042>045-048>051-090-091-251500-
...NORTHEAST COLORADO...

CITY           SKY/WX    TMP DP  RH WIND       PRES   REMARKS
GREELEY ARPT   MOSUNNY   70  55  60 S5        30.06S
AKRON          MOSUNNY   75  53  46 NW15G23   30.04R
BURLINGTON     SUNNY     83  53  35 NW12      29.99R
WRAY             N/A     77  56  48 W7        29.96R
STERLING       MOSUNNY   72  63  73 N6        30.01R
HOLYOKE        MOSUNNY   77  59  53 N18       29.96R
FORT MORGAN    MOSUNNY   72  55  55 W3        30.04R
$$

COZ086-089-092>099-251500-
...SOUTHEAST COLORADO...

CITY           SKY/WX    TMP DP  RH WIND       PRES   REMARKS
PUEBLO         MOSUNNY   79  51  37 N7        30.05R
LA JUNTA       SUNNY     79  53  40 W10       30.00S
LAMAR          MOSUNNY   79  53  40 W8        29.95R HAZE
SPRINGFIELD      N/A     79  48  33 SW10      30.02R
$$


USA.gov is the U.S. government's official web portal to all federal, state and local government web resources and services.